UAL220 LSGG-KJFK

Flight info

Callsign UAL220
Flight time N/A
Altitude 38000
Route SIROD Z124 IBABA DCT TUTAX DCT OBURO DCT OKRIX DCT AMODO DCT COHPA UM729 RESMI DCT TABOV DCT PIGOP DCT DITAL UN491 LGL UN502 ARGED DCT SENLO DCT JSY DCT LIZAD DCT LULOX/M082F380 DCT GIPER DCT ELSOX DCT DINIM/M082F390 DCT 52N020W 52N030W 52N040W 51N050W DCT ALLRY/N0484F400 N468A TUSKY DCT PLYMM PARCH4
Aircraft B772/H-SDE2E3FGHIJ5LORVWXY/LB1D1

Departure

Time 2026-05-04 06:56
Airport Geneva International Airport (LSGG)

Arrival

Time N/A
Airport John F. Kennedy International Airport (KJFK)
Time Latitude Longitude Altitude Speed Heading
2026-05-04 06:26 46.23380 6.11043 1408 ft 0 kts 135°
2026-05-04 06:46 46.23381 6.11042 1397 ft 1 kts 135°
2026-05-04 06:46 46.23398 6.11017 1396 ft 4 kts 135°
2026-05-04 06:46 46.23417 6.10990 1406 ft 3 kts 135°
2026-05-04 06:46 46.23434 6.10971 1397 ft 4 kts 180°
2026-05-04 06:48 46.23473 6.11018 1405 ft 0 kts 225°
2026-05-04 06:50 46.23419 6.10689 1405 ft 9 kts 289°
2026-05-04 06:51 46.23386 6.10621 1397 ft 9 kts 217°
2026-05-04 06:51 46.23341 6.10557 1408 ft 9 kts 225°
2026-05-04 06:51 46.23297 6.10493 1407 ft 9 kts 225°
2026-05-04 06:51 46.23253 6.10429 1406 ft 9 kts 225°
2026-05-04 06:52 46.23209 6.10365 1406 ft 9 kts 225°
2026-05-04 06:52 46.23165 6.10301 1401 ft 9 kts 225°
2026-05-04 06:52 46.23124 6.10230 1408 ft 9 kts 232°
2026-05-04 06:52 46.23077 6.10160 1405 ft 10 kts 225°
2026-05-04 06:53 46.23024 6.10083 1400 ft 13 kts 225°
2026-05-04 06:53 46.22922 6.09933 1410 ft 26 kts 226°
2026-05-04 06:53 46.22788 6.09736 1404 ft 27 kts 225°
2026-05-04 06:53 46.22668 6.09559 1414 ft 23 kts 225°
2026-05-04 06:54 46.22563 6.09381 1412 ft 23 kts 246°
2026-05-04 06:54 46.22568 6.09169 1414 ft 20 kts 309°
2026-05-04 06:54 46.22651 6.09197 1415 ft 17 kts 46°
2026-05-04 06:54 46.22868 6.09519 1414 ft 75 kts 45°
2026-05-04 06:55 46.23378 6.10266 1414 ft 131 kts 45°
2026-05-04 06:55 46.24131 6.11367 1415 ft 177 kts 45°
2026-05-04 06:55 46.25059 6.12743 1523 ft 204 kts 46°
2026-05-04 06:55 46.26062 6.14273 1931 ft 214 kts 46°
2026-05-04 06:56 46.27113 6.15869 2367 ft 222 kts 46°
2026-05-04 06:57 46.35249 6.27964 5160 ft 271 kts 45°
2026-05-04 06:58 46.36516 6.29869 5661 ft 272 kts 46°
2026-05-04 06:58 46.37771 6.31812 6501 ft 258 kts 47°
2026-05-04 06:58 46.38997 6.33728 6990 ft 261 kts 48°
2026-05-04 06:58 46.40311 6.35609 7090 ft 272 kts 33°
2026-05-04 06:59 46.42118 6.36441 7296 ft 281 kts 359°
2026-05-04 06:59 46.43987 6.36237 7511 ft 283 kts 358°